This demonstration page uses our WeatherBlox Daily Observations layout. Learn more.

Left ArrowRight Arrow

39.08367, -84.50855

Hourly Observations for June 14, 2020

Temp ( °F °C ) Dew Point ( °F °C ) Humidity (%) Winds ( mph kmh ) Pressure ( in mb ) Visibility ( mi km ) Precip ( " mm )
12:53 am 00:53 Clear 58 14.4 56 13.3 93 93 Calm 30.21 1023 10 16.0934 0 0
1:53 am 01:53 Mostly Clear 60 15.6 54 12.2 80 80 NNE 5 7 30.21 1023 10 16.0934 0 0
2:53 am 02:53 Clear 59 15 51 10.6 75 75 NNE 6 9 30.21 1023 10 16.0934 0 0
3:53 am 03:53 Clear 58 14.4 50 10 75 75 NE 8 13 30.21 1023 10 16.0934 0 0
4:53 am 04:53 Partly Cloudy 57 13.9 48 8.9 72 72 N 5 7 30.22 1024 10 16.0934 0 0
5:53 am 05:53 Cloudy 58 14.4 48 8.9 70 70 NNE 7 11 30.23 1024 10 16.0934 0 0
6:53 am 06:53 Mostly Cloudy 57 13.9 47 8.3 69 69 N 7 11 30.24 1024 10 16.0934 0 0
7:53 am 07:53 Cloudy 58 14.4 45 7.2 62 62 NNE 7 11 30.26 1025 10 16.0934 0 0
8:53 am 08:53 Cloudy with Light Rain 57 13.9 44 6.7 62 62 NNE 6 9 30.28 1026 10 16.0934 0.001 0.001
9:53 am 09:53 Cloudy with Heavy Rain 55 12.8 47 8.3 74 74 N 7 11 30.29 1026 7 11.26538 0.12 3.048
10:53 am 10:53 Cloudy 56 13.3 50 10 81 81 NE 9 15 30.28 1026 10 16.0934 0.01 0.254
11:53 am 11:53 Cloudy 58 14.4 50 10 75 75 NE 7 11 30.29 1026 10 16.0934 0 0
12:53 pm 12:53 Partly Cloudy 64 17.8 53 11.7 68 68 ENE 6 9 30.29 1026 10 16.0934 0 0
1:53 pm 13:53 Mostly Cloudy 67 19.4 56 13.3 68 68 VRB 3 6 30.27 1025 10 16.0934 0 0
2:53 pm 14:53 Mostly Cloudy 71 21.7 53 11.7 53 53 VRB 6 9 30.25 1024 10 16.0934 0 0
3:53 pm 15:53 Partly Cloudy 73 22.8 52 11.1 48 48 NNE 6 9 30.24 1024 10 16.0934 0 0
4:53 pm 16:53 Partly Cloudy 73 22.8 50 10 44 44 NE 12 19 30.22 1023 10 16.0934 0 0
5:53 pm 17:53 Sunny 73 22.8 46 7.8 38 38 NNE 8 13 30.21 1023 10 16.0934 0 0
6:53 pm 18:53 Sunny 71 21.7 47 8.3 42 42 ENE 9 15 30.22 1023 10 16.0934 0 0
7:53 pm 19:53 Sunny 71 21.7 46 7.8 41 41 NE 13 20 30.23 1024 10 16.0934 0 0
8:53 pm 20:53 Sunny 66 18.9 48 8.9 52 52 NE 5 7 30.24 1024 10 16.0934 0 0
9:53 pm 21:53 Clear 60 15.6 52 11.1 75 75 Calm 30.24 1024 10 16.0934 0 0
10:53 pm 22:53 Clear 58 14.4 52 11.1 81 81 Calm 30.25 1025 10 16.0934 0 0
11:53 pm 23:53 Clear 56 13.3 51 10.6 84 84 Calm 30.26 1025 10 16.0934 0 0

Powered by AerisWeather